EXS3XZ EGNT-LEAL

Flight info

Callsign EXS3XZ
Flight time 2h 57m
Altitude 37000
Route GIRLI P18 GASKO P16 RIBEL UP16 NOKIN N862 KARNO DCT ALHUP DCT ABWIV DCT PACSE DCT TONQU DCT SALCO DCT NENEM DCT BADRU P152 PPN DCT NOLSA N857 VASUM DCT BANEV DCT BAN DCT PINAR DCT CJN DCT VILLA DCT NANDO DCT MOTIL L150 ASTRO
Aircraft B738/M-SDE2E3FGHIRWXY/LB1

Departure

Time 2026-04-29 13:03
Airport Newcastle International Airport (EGNT)

Arrival

Time 2026-04-29 16:00
Airport Alicante-Elche Miguel Hernández Airport (LEAL)
Time Latitude Longitude Altitude Speed Heading
2026-04-29 12:50 55.03659 -1.70701 269 ft 0 kts
2026-04-29 12:56 55.03648 -1.70705 269 ft 2 kts 18°
2026-04-29 12:57 55.03634 -1.70716 269 ft 2 kts 33°
2026-04-29 12:57 55.03622 -1.70734 270 ft 2 kts 50°
2026-04-29 12:57 55.03614 -1.70756 270 ft 2 kts 66°
2026-04-29 12:57 55.03611 -1.70781 271 ft 2 kts 83°
2026-04-29 12:58 55.03610 -1.70795 271 ft 0 kts 90°
2026-04-29 13:01 55.03610 -1.70790 271 ft 2 kts 90°
2026-04-29 13:01 55.03575 -1.70650 268 ft 23 kts 158°
2026-04-29 13:01 55.03452 -1.70637 268 ft 13 kts 183°
2026-04-29 13:01 55.03377 -1.70568 266 ft 12 kts 98°
2026-04-29 13:02 55.03402 -1.70438 265 ft 9 kts 73°
2026-04-29 13:02 55.03432 -1.70335 265 ft 12 kts 62°
2026-04-29 13:02 55.03593 -1.69752 255 ft 95 kts 66°
2026-04-29 13:02 55.03984 -1.68235 235 ft 172 kts 67°
2026-04-29 13:03 55.04438 -1.66039 740 ft 197 kts 74°
2026-04-29 13:03 55.04867 -1.63968 1808 ft 184 kts 65°
2026-04-29 13:03 55.05680 -1.62077 2175 ft 201 kts 57°
2026-04-29 13:03 55.06192 -1.59739 2714 ft 205 kts 91°
2026-04-29 13:04 55.05859 -1.57356 3431 ft 203 kts 115°
2026-04-29 13:04 55.05054 -1.55271 4049 ft 211 kts 129°
2026-04-29 13:04 55.03844 -1.53592 4493 ft 231 kts 152°
2026-04-29 13:04 55.02179 -1.53027 4978 ft 250 kts 174°
2026-04-29 13:05 55.00343 -1.53091 5438 ft 265 kts 177°
2026-04-29 13:05 54.98475 -1.53249 6138 ft 269 kts 181°
2026-04-29 13:05 54.96601 -1.54035 6849 ft 278 kts 198°
2026-04-29 13:05 54.94851 -1.55661 7516 ft 285 kts 206°
2026-04-29 13:06 54.93167 -1.57515 8177 ft 289 kts 207°
2026-04-29 13:06 54.91426 -1.59430 8442 ft 295 kts 206°
2026-04-29 13:06 54.89652 -1.61324 8456 ft 292 kts 206°
2026-04-29 13:06 54.87926 -1.63126 8762 ft 288 kts 205°
2026-04-29 13:07 54.86168 -1.64929 9186 ft 299 kts 205°
2026-04-29 13:07 54.84349 -1.66783 9623 ft 310 kts 205°
2026-04-29 13:07 54.82443 -1.68727 10028 ft 320 kts 205°
2026-04-29 13:07 54.80509 -1.70706 10429 ft 326 kts 205°
2026-04-29 13:08 54.78526 -1.72738 10868 ft 328 kts 205°
2026-04-29 13:08 54.76556 -1.74757 11301 ft 330 kts 205°
2026-04-29 13:08 54.74567 -1.76790 11725 ft 333 kts 205°
2026-04-29 13:08 54.72551 -1.78840 12156 ft 336 kts 204°
2026-04-29 13:09 54.70426 -1.80600 12552 ft 333 kts 194°
2026-04-29 13:09 54.68196 -1.81649 13006 ft 331 kts 185°
2026-04-29 13:09 54.65901 -1.82324 13428 ft 332 kts 182°
2026-04-29 13:09 54.63625 -1.82893 13841 ft 332 kts 182°
2026-04-29 13:10 54.61304 -1.83501 14259 ft 334 kts 183°
2026-04-29 13:10 54.59014 -1.84159 14680 ft 337 kts 184°
2026-04-29 13:10 54.56661 -1.84881 15111 ft 338 kts 184°
2026-04-29 13:10 54.54360 -1.85604 15505 ft 341 kts 184°
2026-04-29 13:11 54.52007 -1.86349 15903 ft 344 kts 184°
2026-04-29 13:11 54.49615 -1.87105 16331 ft 346 kts 184°
2026-04-29 13:11 54.47239 -1.87857 16757 ft 347 kts 184°
2026-04-29 13:11 54.44847 -1.88609 17184 ft 350 kts 184°
2026-04-29 13:12 54.42408 -1.89371 17614 ft 352 kts 184°
2026-04-29 13:12 54.39973 -1.90129 18043 ft 354 kts 184°
2026-04-29 13:12 54.37536 -1.90890 18485 ft 357 kts 184°
2026-04-29 13:12 54.35049 -1.91667 18921 ft 359 kts 184°
2026-04-29 13:13 54.32601 -1.92434 19365 ft 361 kts 184°
2026-04-29 13:13 54.30090 -1.93218 19799 ft 363 kts 184°
2026-04-29 13:13 54.27596 -1.93996 20257 ft 364 kts 185°
2026-04-29 13:13 54.25072 -1.94958 20692 ft 371 kts 190°
2026-04-29 13:14 54.22636 -1.96519 21121 ft 380 kts 201°
2026-04-29 13:14 54.20359 -1.98904 21560 ft 388 kts 212°
2026-04-29 13:14 54.18264 -2.01861 22008 ft 394 kts 217°
2026-04-29 13:14 54.16239 -2.05071 22438 ft 398 kts 219°
2026-04-29 13:15 54.14246 -2.08361 22891 ft 401 kts 220°
2026-04-29 13:15 54.12223 -2.11720 23334 ft 402 kts 220°
2026-04-29 13:15 54.10215 -2.15035 23772 ft 404 kts 219°
2026-04-29 13:15 54.08156 -2.18398 24219 ft 407 kts 219°
2026-04-29 13:16 54.06091 -2.21735 24665 ft 409 kts 219°
2026-04-29 13:16 54.04003 -2.25025 25111 ft 410 kts 217°
2026-04-29 13:16 54.01780 -2.28089 25560 ft 407 kts 209°
2026-04-29 13:16 53.99336 -2.30498 26010 ft 403 kts 201°
2026-04-29 13:17 53.96757 -2.32426 26467 ft 402 kts 196°
2026-04-29 13:17 53.94145 -2.34120 26921 ft 402 kts 195°
2026-04-29 13:17 53.91516 -2.35736 27379 ft 403 kts 194°
2026-04-29 13:17 53.88876 -2.37345 27829 ft 404 kts 194°
2026-04-29 13:18 53.86230 -2.38973 28286 ft 405 kts 194°
2026-04-29 13:18 53.83586 -2.40617 28746 ft 405 kts 194°
2026-04-29 13:18 53.80943 -2.42277 29206 ft 405 kts 194°
2026-04-29 13:18 53.78301 -2.43950 29663 ft 405 kts 195°
2026-04-29 13:19 53.75604 -2.45665 30131 ft 405 kts 195°
2026-04-29 13:19 53.72960 -2.47351 30595 ft 404 kts 194°
2026-04-29 13:19 53.70356 -2.49011 31045 ft 403 kts 194°
2026-04-29 13:19 53.67745 -2.50672 31492 ft 401 kts 194°
2026-04-29 13:20 53.65131 -2.52335 31940 ft 400 kts 194°
2026-04-29 13:20 53.62554 -2.53971 32382 ft 397 kts 194°
2026-04-29 13:20 53.59974 -2.55608 32830 ft 395 kts 194°
2026-04-29 13:20 53.57416 -2.57231 33285 ft 392 kts 194°
2026-04-29 13:21 53.54854 -2.58857 33741 ft 388 kts 194°
2026-04-29 13:21 53.52345 -2.60446 34188 ft 384 kts 193°
2026-04-29 13:21 53.49859 -2.62015 34632 ft 380 kts 193°
2026-04-29 13:21 53.47429 -2.63541 35031 ft 374 kts 193°
2026-04-29 13:22 53.45011 -2.65059 35429 ft 368 kts 192°
2026-04-29 13:22 53.42659 -2.66540 35816 ft 361 kts 192°
2026-04-29 13:22 53.40325 -2.68010 36208 ft 353 kts 192°
2026-04-29 13:22 53.38068 -2.69433 36596 ft 344 kts 192°
2026-04-29 13:23 53.35873 -2.70814 37091 ft 334 kts 192°
2026-04-29 13:23 53.33706 -2.72170 37336 ft 331 kts 192°
2026-04-29 13:23 53.31553 -2.73500 37362 ft 332 kts 191°
2026-04-29 13:24 53.27204 -2.76179 37357 ft 336 kts 192°
2026-04-29 13:24 53.22781 -2.78920 37350 ft 341 kts 192°
2026-04-29 13:25 53.18325 -2.81683 37347 ft 345 kts 192°
2026-04-29 13:25 53.11514 -2.85890 37350 ft 352 kts 192°
2026-04-29 13:26 53.06835 -2.88188 37349 ft 349 kts 181°
2026-04-29 13:26 53.02036 -2.88939 37340 ft 348 kts 174°
2026-04-29 13:27 52.97195 -2.89244 37336 ft 353 kts 174°
2026-04-29 13:27 52.92251 -2.89601 37331 ft 360 kts 175°
2026-04-29 13:28 52.87220 -2.90160 37321 ft 370 kts 179°
2026-04-29 13:28 52.82080 -2.91373 37313 ft 378 kts 181°
2026-04-29 13:29 52.76815 -2.92720 37302 ft 385 kts 181°
2026-04-29 13:29 52.71497 -2.94011 37304 ft 392 kts 180°
2026-04-29 13:30 52.66069 -2.94770 37302 ft 395 kts 175°
2026-04-29 13:30 52.60542 -2.95102 37293 ft 402 kts 175°
2026-04-29 13:31 52.54922 -2.95478 37268 ft 410 kts 176°
2026-04-29 13:31 52.49174 -2.95922 37277 ft 418 kts 177°
2026-04-29 13:32 52.43357 -2.96401 37267 ft 422 kts 176°
2026-04-29 13:32 52.37501 -2.96890 37265 ft 419 kts 177°
2026-04-29 13:33 52.31693 -2.97377 37259 ft 418 kts 177°
2026-04-29 13:33 52.25909 -2.97852 37270 ft 418 kts 177°
2026-04-29 13:34 52.20097 -2.98327 37264 ft 417 kts 177°
2026-04-29 13:34 52.14323 -2.98798 37252 ft 419 kts 177°
2026-04-29 13:35 52.08527 -2.99270 37253 ft 416 kts 177°
2026-04-29 13:35 52.02800 -2.99727 37266 ft 415 kts 177°
2026-04-29 13:36 51.96974 -3.00182 37252 ft 419 kts 178°
2026-04-29 13:36 51.91184 -3.00645 37234 ft 417 kts 178°
2026-04-29 13:37 51.85401 -3.01227 37245 ft 418 kts 180°
2026-04-29 13:37 51.79604 -3.02413 37235 ft 421 kts 183°
2026-04-29 13:38 51.73833 -3.03743 37239 ft 418 kts 183°
2026-04-29 13:38 51.68045 -3.05020 37227 ft 419 kts 183°
2026-04-29 13:39 51.62255 -3.06262 37223 ft 418 kts 182°
2026-04-29 13:39 51.56480 -3.07470 37215 ft 418 kts 183°
2026-04-29 13:40 51.50752 -3.08651 37205 ft 419 kts 183°
2026-04-29 13:40 51.44985 -3.09836 37203 ft 417 kts 183°
2026-04-29 13:41 51.39220 -3.11029 37203 ft 417 kts 183°
2026-04-29 13:41 51.33475 -3.12215 37193 ft 417 kts 183°
2026-04-29 13:42 51.27761 -3.13388 37191 ft 417 kts 183°
2026-04-29 13:42 51.22001 -3.14559 37194 ft 417 kts 183°
2026-04-29 13:43 51.16254 -3.15726 37180 ft 420 kts 184°
2026-04-29 13:43 51.10480 -3.16898 37179 ft 418 kts 184°
2026-04-29 13:44 51.04748 -3.18055 37172 ft 417 kts 184°
2026-04-29 13:44 50.98967 -3.19217 37172 ft 418 kts 184°
2026-04-29 13:45 50.93181 -3.20382 37172 ft 417 kts 184°
2026-04-29 13:45 50.87439 -3.21537 37159 ft 415 kts 184°
2026-04-29 13:46 50.81694 -3.22697 37174 ft 416 kts 184°
2026-04-29 13:46 50.75895 -3.23862 37155 ft 414 kts 185°
2026-04-29 13:47 50.70178 -3.25008 37154 ft 413 kts 184°
2026-04-29 13:47 50.64453 -3.26144 37143 ft 414 kts 185°
2026-04-29 13:48 50.58729 -3.27282 37140 ft 412 kts 185°
2026-04-29 13:48 50.53028 -3.28410 37135 ft 412 kts 185°
2026-04-29 13:49 50.47301 -3.29537 37124 ft 411 kts 185°
2026-04-29 13:49 50.41602 -3.30658 37117 ft 410 kts 185°
2026-04-29 13:50 50.35902 -3.31950 37101 ft 413 kts 188°
2026-04-29 13:50 50.30265 -3.33848 37098 ft 410 kts 191°
2026-04-29 13:51 50.24696 -3.35848 37097 ft 412 kts 191°
2026-04-29 13:51 50.19084 -3.37799 37082 ft 410 kts 190°
2026-04-29 13:52 50.13467 -3.39707 37090 ft 411 kts 190°
2026-04-29 13:52 50.07881 -3.41591 37083 ft 409 kts 190°
2026-04-29 13:53 50.02307 -3.43458 37076 ft 410 kts 190°
2026-04-29 13:53 49.96615 -3.45349 37051 ft 409 kts 190°
2026-04-29 13:54 49.90983 -3.47221 37054 ft 409 kts 190°
2026-04-29 13:54 49.85322 -3.49100 37054 ft 410 kts 190°
2026-04-29 13:55 49.79652 -3.50982 37056 ft 409 kts 190°
2026-04-29 13:55 49.73996 -3.52572 37047 ft 408 kts 185°
2026-04-29 13:56 49.68302 -3.52770 37040 ft 406 kts 177°
2026-04-29 13:56 49.62650 -3.52306 37044 ft 405 kts 176°
2026-04-29 13:57 49.56916 -3.51776 37038 ft 406 kts 176°
2026-04-29 13:57 49.51255 -3.51315 37038 ft 405 kts 176°
2026-04-29 13:58 49.45590 -3.50888 37031 ft 405 kts 176°
2026-04-29 13:58 49.39921 -3.50466 37029 ft 406 kts 177°
2026-04-29 13:59 49.34241 -3.50051 37009 ft 404 kts 177°
2026-04-29 13:59 49.28585 -3.49636 37009 ft 405 kts 177°
2026-04-29 14:00 49.22940 -3.49225 37003 ft 406 kts 177°
2026-04-29 14:00 49.17240 -3.48819 37010 ft 404 kts 177°
2026-04-29 14:01 49.11628 -3.48409 36997 ft 404 kts 177°
2026-04-29 14:01 49.05952 -3.48002 36987 ft 406 kts 178°
2026-04-29 14:02 49.00328 -3.47591 36988 ft 404 kts 177°
2026-04-29 14:02 48.94660 -3.47173 36984 ft 406 kts 177°
2026-04-29 14:03 48.89039 -3.46768 36986 ft 404 kts 178°
2026-04-29 14:03 48.83379 -3.46369 36978 ft 405 kts 178°
2026-04-29 14:04 48.77739 -3.45974 36986 ft 404 kts 178°
2026-04-29 14:04 48.72090 -3.45563 36988 ft 404 kts 178°
2026-04-29 14:05 48.66436 -3.45150 36971 ft 404 kts 178°
2026-04-29 14:05 48.60740 -3.44746 36981 ft 405 kts 178°
2026-04-29 14:06 48.55072 -3.44351 36966 ft 403 kts 178°
2026-04-29 14:06 48.49449 -3.43957 36959 ft 403 kts 178°
2026-04-29 14:07 48.43835 -3.43554 36953 ft 403 kts 178°
2026-04-29 14:07 48.38199 -3.43154 36954 ft 403 kts 178°
2026-04-29 14:08 48.32535 -3.42758 36956 ft 404 kts 178°
2026-04-29 14:08 48.26907 -3.42365 36950 ft 403 kts 178°
2026-04-29 14:09 48.21282 -3.41969 36942 ft 403 kts 178°
2026-04-29 14:09 48.15609 -3.41573 36934 ft 404 kts 178°
2026-04-29 14:10 48.10001 -3.41184 36937 ft 403 kts 178°
2026-04-29 14:10 48.04344 -3.40792 36933 ft 403 kts 178°
2026-04-29 14:11 47.98700 -3.40400 36929 ft 401 kts 178°
2026-04-29 14:11 47.93053 -3.40011 36934 ft 402 kts 178°
2026-04-29 14:12 47.87414 -3.39629 36931 ft 402 kts 178°
2026-04-29 14:12 47.81775 -3.39237 36932 ft 402 kts 178°
2026-04-29 14:13 47.76131 -3.38848 36933 ft 402 kts 178°
2026-04-29 14:13 47.70493 -3.38464 36927 ft 402 kts 178°
2026-04-29 14:14 47.64832 -3.38072 36917 ft 401 kts 178°
2026-04-29 14:14 47.59222 -3.37688 36922 ft 402 kts 178°
2026-04-29 14:15 47.53593 -3.37299 36924 ft 402 kts 179°
2026-04-29 14:15 47.47974 -3.36918 36909 ft 401 kts 178°
2026-04-29 14:16 47.42368 -3.36540 36912 ft 402 kts 178°
2026-04-29 14:16 47.36816 -3.36164 36908 ft 402 kts 179°
2026-04-29 14:17 47.31200 -3.35783 36909 ft 401 kts 179°
2026-04-29 14:17 47.25628 -3.35405 36901 ft 401 kts 179°
2026-04-29 14:18 47.19992 -3.35020 36898 ft 402 kts 178°
2026-04-29 14:18 47.14406 -3.34644 36905 ft 401 kts 179°
2026-04-29 14:19 47.08863 -3.34276 36894 ft 401 kts 179°
2026-04-29 14:19 47.03258 -3.33905 36898 ft 401 kts 179°
2026-04-29 14:20 46.97724 -3.33535 36901 ft 401 kts 179°
2026-04-29 14:20 46.92163 -3.33163 36894 ft 401 kts 179°
2026-04-29 14:21 46.86585 -3.32794 36903 ft 402 kts 179°
2026-04-29 14:21 46.81018 -3.32428 36899 ft 400 kts 179°
2026-04-29 14:22 46.75486 -3.32063 36897 ft 401 kts 179°
2026-04-29 14:22 46.69893 -3.31693 36888 ft 400 kts 179°
2026-04-29 14:23 46.64375 -3.31329 36891 ft 400 kts 179°
2026-04-29 14:23 46.58843 -3.30967 36889 ft 399 kts 179°
2026-04-29 14:24 46.53271 -3.30598 36880 ft 400 kts 179°
2026-04-29 14:24 46.47726 -3.30235 36881 ft 399 kts 179°
2026-04-29 14:25 46.42213 -3.29876 36881 ft 400 kts 179°
2026-04-29 14:25 46.36676 -3.29516 36880 ft 399 kts 179°
2026-04-29 14:26 46.31123 -3.29156 36880 ft 399 kts 179°
2026-04-29 14:26 46.25597 -3.28792 36873 ft 399 kts 179°
2026-04-29 14:27 46.20080 -3.28433 36866 ft 399 kts 179°
2026-04-29 14:28 46.11784 -3.27899 36868 ft 398 kts 179°
2026-04-29 14:28 46.06286 -3.27542 36880 ft 398 kts 179°
2026-04-29 14:29 46.00746 -3.27186 36875 ft 397 kts 179°
2026-04-29 14:29 45.95271 -3.26832 36867 ft 398 kts 179°
2026-04-29 14:30 45.89740 -3.26479 36876 ft 399 kts 179°
2026-04-29 14:30 45.84231 -3.26129 36872 ft 398 kts 179°
2026-04-29 14:31 45.78718 -3.25773 36872 ft 397 kts 179°
2026-04-29 14:31 45.73210 -3.25418 36874 ft 398 kts 178°
2026-04-29 14:32 45.67699 -3.25071 36868 ft 398 kts 178°
2026-04-29 14:32 45.62162 -3.24724 36870 ft 398 kts 179°
2026-04-29 14:33 45.56644 -3.24372 36863 ft 398 kts 179°
2026-04-29 14:33 45.51132 -3.24024 36860 ft 397 kts 179°
2026-04-29 14:34 45.45602 -3.23676 36851 ft 397 kts 179°
2026-04-29 14:34 45.40122 -3.23333 36844 ft 397 kts 179°
2026-04-29 14:35 45.34586 -3.22985 36864 ft 398 kts 179°
2026-04-29 14:35 45.29044 -3.22637 36850 ft 397 kts 179°
2026-04-29 14:36 45.23531 -3.22291 36854 ft 398 kts 178°
2026-04-29 14:36 45.18037 -3.21952 36842 ft 398 kts 178°
2026-04-29 14:37 45.12519 -3.21603 36843 ft 397 kts 179°
2026-04-29 14:37 45.06979 -3.21253 36847 ft 398 kts 178°
2026-04-29 14:38 45.01443 -3.20912 36834 ft 398 kts 178°
2026-04-29 14:38 44.95929 -3.20568 36844 ft 397 kts 178°
2026-04-29 14:39 44.90440 -3.20231 36836 ft 397 kts 178°
2026-04-29 14:39 44.84911 -3.19890 36837 ft 398 kts 178°
2026-04-29 14:40 44.79397 -3.19546 36826 ft 398 kts 178°
2026-04-29 14:40 44.73877 -3.19206 36832 ft 399 kts 178°
2026-04-29 14:41 44.68325 -3.18867 36823 ft 399 kts 178°
2026-04-29 14:41 44.62806 -3.18530 36823 ft 399 kts 178°
2026-04-29 14:42 44.57244 -3.18188 36827 ft 399 kts 178°
2026-04-29 14:42 44.51730 -3.17848 36824 ft 399 kts 178°
2026-04-29 14:43 44.46195 -3.17512 36819 ft 400 kts 178°
2026-04-29 14:43 44.40645 -3.17172 36813 ft 399 kts 179°
2026-04-29 14:44 44.35079 -3.16835 36804 ft 398 kts 179°
2026-04-29 14:44 44.29581 -3.16503 36812 ft 399 kts 178°
2026-04-29 14:45 44.24052 -3.16168 36806 ft 399 kts 178°
2026-04-29 14:45 44.18490 -3.15833 36808 ft 399 kts 178°
2026-04-29 14:46 44.12966 -3.15502 36800 ft 399 kts 178°
2026-04-29 14:46 44.07438 -3.14741 36809 ft 402 kts 168°
2026-04-29 14:47 44.02323 -3.11655 36798 ft 408 kts 150°
2026-04-29 14:47 43.97772 -3.06946 36810 ft 409 kts 144°
2026-04-29 14:48 43.93359 -3.01918 36822 ft 411 kts 144°
2026-04-29 14:48 43.88965 -2.96903 36827 ft 411 kts 144°
2026-04-29 14:49 43.84518 -2.91883 36819 ft 410 kts 144°
2026-04-29 14:49 43.80100 -2.86922 36820 ft 410 kts 144°
2026-04-29 14:50 43.75678 -2.81977 36821 ft 411 kts 144°
2026-04-29 14:50 43.71262 -2.77049 36819 ft 409 kts 144°
2026-04-29 14:51 43.66840 -2.72115 36821 ft 410 kts 144°
2026-04-29 14:51 43.62375 -2.67158 36817 ft 410 kts 144°
2026-04-29 14:52 43.57948 -2.62252 36820 ft 410 kts 144°
2026-04-29 14:52 43.53520 -2.57344 36819 ft 410 kts 144°
2026-04-29 14:53 43.49067 -2.52421 36811 ft 410 kts 144°
2026-04-29 14:53 43.44619 -2.47521 36817 ft 409 kts 144°
2026-04-29 14:54 43.40158 -2.42613 36821 ft 410 kts 144°
2026-04-29 14:54 43.35727 -2.37745 36823 ft 408 kts 144°
2026-04-29 14:55 43.31294 -2.32886 36822 ft 409 kts 145°
2026-04-29 14:55 43.26854 -2.28022 36827 ft 409 kts 144°
2026-04-29 14:56 43.22401 -2.23164 36836 ft 411 kts 145°
2026-04-29 14:56 43.17920 -2.18277 36843 ft 409 kts 145°
2026-04-29 14:57 43.13484 -2.13451 36849 ft 410 kts 145°
2026-04-29 14:57 43.09007 -2.08599 36852 ft 410 kts 145°
2026-04-29 14:58 43.04541 -2.03760 36864 ft 410 kts 145°
2026-04-29 14:58 43.00086 -1.98942 36880 ft 409 kts 145°
2026-04-29 14:59 42.95633 -1.94141 36891 ft 409 kts 145°
2026-04-29 14:59 42.91203 -1.89374 36880 ft 409 kts 145°
2026-04-29 15:00 42.86719 -1.84555 36893 ft 409 kts 145°
2026-04-29 15:00 42.82261 -1.79783 36894 ft 410 kts 146°
2026-04-29 15:01 42.77374 -1.75913 36891 ft 403 kts 164°
2026-04-29 15:01 42.71893 -1.74669 36891 ft 400 kts 180°
2026-04-29 15:02 42.66384 -1.75317 36897 ft 398 kts 195°
2026-04-29 15:02 42.61283 -1.78107 36897 ft 397 kts 205°
2026-04-29 15:03 42.56352 -1.81464 36893 ft 397 kts 206°
2026-04-29 15:03 42.51463 -1.84832 36894 ft 396 kts 206°
2026-04-29 15:04 42.46533 -1.88177 36889 ft 398 kts 206°
2026-04-29 15:04 42.41572 -1.91509 36892 ft 396 kts 206°
2026-04-29 15:05 42.36639 -1.94802 36886 ft 397 kts 206°
2026-04-29 15:05 42.31701 -1.98088 36888 ft 397 kts 206°
2026-04-29 15:06 42.26747 -2.01383 36886 ft 398 kts 206°
2026-04-29 15:06 42.21772 -2.04687 36885 ft 397 kts 206°
2026-04-29 15:07 42.16812 -2.07970 36907 ft 400 kts 206°
2026-04-29 15:07 42.11829 -2.11259 36907 ft 400 kts 206°
2026-04-29 15:08 42.06801 -2.14567 36896 ft 401 kts 206°
2026-04-29 15:08 42.01802 -2.17853 36907 ft 402 kts 206°
2026-04-29 15:09 41.96798 -2.21135 36917 ft 400 kts 206°
2026-04-29 15:09 41.91808 -2.24404 36924 ft 400 kts 206°
2026-04-29 15:10 41.86809 -2.27679 36927 ft 399 kts 206°
2026-04-29 15:10 41.81848 -2.30918 36935 ft 398 kts 207°
2026-04-29 15:11 41.76890 -2.34153 36926 ft 397 kts 207°
2026-04-29 15:11 41.71895 -2.37405 36924 ft 397 kts 207°
2026-04-29 15:12 41.66951 -2.40617 36926 ft 398 kts 207°
2026-04-29 15:12 41.61959 -2.43854 36927 ft 397 kts 207°
2026-04-29 15:13 41.57012 -2.47066 36925 ft 398 kts 207°
2026-04-29 15:13 41.52033 -2.50286 36925 ft 396 kts 207°
2026-04-29 15:14 41.47077 -2.53482 36920 ft 395 kts 208°
2026-04-29 15:14 41.42116 -2.56684 36924 ft 397 kts 207°
2026-04-29 15:15 41.37164 -2.59869 36933 ft 396 kts 207°
2026-04-29 15:15 41.31972 -2.62386 36927 ft 400 kts 193°
2026-04-29 15:16 41.26393 -2.62648 36928 ft 405 kts 181°
2026-04-29 15:16 41.20768 -2.62115 36929 ft 405 kts 180°
2026-04-29 15:17 41.15115 -2.61510 36933 ft 407 kts 180°
2026-04-29 15:17 41.09494 -2.60959 36924 ft 406 kts 180°
2026-04-29 15:18 41.03858 -2.60446 36934 ft 407 kts 181°
2026-04-29 15:18 40.98181 -2.59945 36941 ft 408 kts 181°
2026-04-29 15:19 40.92530 -2.59441 36948 ft 408 kts 181°
2026-04-29 15:19 40.86875 -2.58923 36940 ft 408 kts 181°
2026-04-29 15:20 40.81203 -2.58408 36932 ft 408 kts 181°
2026-04-29 15:20 40.75551 -2.57895 36944 ft 409 kts 181°
2026-04-29 15:21 40.69839 -2.57382 36921 ft 408 kts 181°
2026-04-29 15:21 40.64202 -2.56880 36928 ft 408 kts 181°
2026-04-29 15:22 40.58518 -2.56369 36930 ft 409 kts 181°
2026-04-29 15:22 40.52835 -2.55860 36926 ft 410 kts 181°
2026-04-29 15:23 40.47150 -2.55355 36921 ft 408 kts 181°
2026-04-29 15:23 40.41468 -2.54808 36918 ft 410 kts 179°
2026-04-29 15:24 40.35915 -2.52852 36928 ft 426 kts 160°
2026-04-29 15:24 40.30841 -2.48622 36930 ft 436 kts 150°
2026-04-29 15:25 40.25982 -2.43884 36933 ft 436 kts 149°
2026-04-29 15:25 40.21153 -2.39107 36933 ft 436 kts 149°
2026-04-29 15:26 40.16303 -2.34344 36939 ft 435 kts 149°
2026-04-29 15:26 40.11442 -2.29612 36944 ft 438 kts 149°
2026-04-29 15:27 40.06545 -2.24877 36944 ft 439 kts 149°
2026-04-29 15:27 40.01637 -2.20145 36582 ft 440 kts 150°
2026-04-29 15:27 39.99180 -2.17779 36288 ft 439 kts 150°
2026-04-29 15:28 39.96728 -2.15419 36044 ft 436 kts 150°
2026-04-29 15:28 39.95125 -2.13877 35898 ft 435 kts 150°
2026-04-29 15:28 39.91891 -2.10768 35598 ft 432 kts 150°
2026-04-29 15:28 39.89477 -2.08452 35370 ft 431 kts 150°
2026-04-29 15:29 39.87064 -2.06138 35139 ft 432 kts 150°
2026-04-29 15:29 39.82228 -2.01510 34666 ft 429 kts 150°
2026-04-29 15:30 39.77454 -1.96948 34182 ft 423 kts 150°
2026-04-29 15:30 39.75067 -1.94668 33912 ft 421 kts 150°
2026-04-29 15:30 39.72699 -1.92412 33642 ft 421 kts 150°
2026-04-29 15:30 39.70313 -1.90141 33363 ft 419 kts 150°
2026-04-29 15:31 39.67976 -1.87917 32974 ft 415 kts 150°
2026-04-29 15:31 39.65646 -1.85702 32489 ft 413 kts 150°
2026-04-29 15:31 39.63330 -1.83503 31983 ft 412 kts 149°
2026-04-29 15:31 39.61028 -1.81321 31475 ft 410 kts 149°
2026-04-29 15:32 39.58725 -1.79138 30966 ft 409 kts 149°
2026-04-29 15:32 39.56448 -1.76981 30460 ft 407 kts 149°
2026-04-29 15:32 39.54188 -1.74843 29960 ft 405 kts 149°
2026-04-29 15:32 39.51907 -1.72687 29436 ft 403 kts 148°
2026-04-29 15:33 39.49640 -1.70545 28934 ft 401 kts 148°
2026-04-29 15:33 39.47403 -1.68432 28446 ft 398 kts 148°
2026-04-29 15:33 39.45176 -1.66329 27955 ft 396 kts 148°
2026-04-29 15:33 39.42957 -1.64235 27459 ft 394 kts 148°
2026-04-29 15:34 39.40754 -1.62158 26967 ft 391 kts 148°
2026-04-29 15:34 39.38561 -1.60094 26474 ft 389 kts 148°
2026-04-29 15:34 39.36370 -1.58032 25982 ft 387 kts 148°
2026-04-29 15:34 39.34220 -1.56012 25493 ft 384 kts 148°
2026-04-29 15:35 39.32074 -1.53995 25019 ft 381 kts 148°
2026-04-29 15:35 39.29936 -1.51991 24531 ft 379 kts 148°
2026-04-29 15:35 39.27784 -1.49980 24045 ft 376 kts 148°
2026-04-29 15:35 39.25670 -1.48003 23576 ft 372 kts 147°
2026-04-29 15:36 39.23595 -1.46061 23112 ft 369 kts 148°
2026-04-29 15:36 39.21510 -1.44107 22649 ft 366 kts 147°
2026-04-29 15:36 39.19467 -1.42196 22191 ft 363 kts 148°
2026-04-29 15:36 39.17436 -1.40293 21737 ft 361 kts 147°
2026-04-29 15:37 39.15407 -1.38396 21282 ft 358 kts 148°
2026-04-29 15:37 39.13380 -1.36503 20829 ft 355 kts 148°
2026-04-29 15:37 39.11415 -1.34671 20385 ft 353 kts 148°
2026-04-29 15:37 39.09432 -1.32825 19939 ft 350 kts 148°
2026-04-29 15:38 39.07465 -1.30996 19496 ft 347 kts 148°
2026-04-29 15:38 39.05507 -1.29171 19048 ft 345 kts 148°
2026-04-29 15:38 39.03588 -1.27382 18606 ft 342 kts 148°
2026-04-29 15:38 39.01668 -1.25599 18174 ft 339 kts 148°
2026-04-29 15:39 38.99777 -1.23846 17746 ft 337 kts 148°
2026-04-29 15:39 38.97859 -1.22067 17307 ft 334 kts 148°
2026-04-29 15:39 38.95984 -1.20329 16881 ft 332 kts 148°
2026-04-29 15:39 38.94116 -1.18597 16453 ft 329 kts 148°
2026-04-29 15:40 38.92271 -1.16887 16008 ft 323 kts 148°
2026-04-29 15:40 38.90488 -1.15232 15615 ft 312 kts 148°
2026-04-29 15:40 38.88753 -1.13623 15227 ft 302 kts 148°
2026-04-29 15:40 38.87064 -1.12062 14849 ft 299 kts 148°
2026-04-29 15:41 38.85361 -1.10499 14463 ft 305 kts 148°
2026-04-29 15:41 38.83636 -1.08912 14051 ft 305 kts 148°
2026-04-29 15:41 38.81919 -1.07327 13660 ft 294 kts 148°
2026-04-29 15:41 38.80279 -1.05810 13289 ft 293 kts 148°
2026-04-29 15:42 38.78602 -1.04268 12909 ft 299 kts 148°
2026-04-29 15:42 38.76913 -1.02719 12515 ft 298 kts 148°
2026-04-29 15:42 38.75245 -1.01183 12133 ft 288 kts 147°
2026-04-29 15:42 38.73632 -0.99697 11765 ft 288 kts 147°
2026-04-29 15:43 38.71985 -0.98187 11391 ft 293 kts 147°
2026-04-29 15:43 38.70318 -0.96658 10999 ft 291 kts 147°
2026-04-29 15:43 38.68706 -0.95174 10631 ft 281 kts 147°
2026-04-29 15:43 38.67129 -0.93725 10278 ft 283 kts 146°
2026-04-29 15:44 38.65519 -0.92251 9961 ft 284 kts 146°
2026-04-29 15:44 38.63923 -0.90788 9934 ft 277 kts 146°
2026-04-29 15:44 38.62340 -0.89339 9937 ft 281 kts 146°
2026-04-29 15:44 38.60743 -0.87878 9930 ft 282 kts 146°
2026-04-29 15:45 38.59169 -0.86438 9552 ft 281 kts 146°
2026-04-29 15:45 38.57577 -0.84980 9015 ft 278 kts 146°
2026-04-29 15:45 38.56029 -0.83563 8581 ft 271 kts 146°
2026-04-29 15:45 38.54463 -0.82324 8283 ft 259 kts 157°
2026-04-29 15:46 38.52776 -0.81806 8078 ft 240 kts 183°
2026-04-29 15:46 38.51173 -0.82117 7866 ft 225 kts 194°
2026-04-29 15:46 38.49827 -0.82930 7724 ft 212 kts 225°
2026-04-29 15:46 38.49208 -0.84589 7425 ft 212 kts 266°
2026-04-29 15:47 38.49383 -0.86459 7134 ft 211 kts 281°
2026-04-29 15:47 38.49706 -0.88230 7040 ft 200 kts 281°
2026-04-29 15:47 38.50018 -0.89966 7029 ft 198 kts 281°
2026-04-29 15:47 38.50330 -0.91731 6857 ft 205 kts 281°
2026-04-29 15:48 38.50642 -0.93506 6661 ft 202 kts 281°
2026-04-29 15:48 38.50946 -0.95234 6470 ft 201 kts 281°
2026-04-29 15:48 38.51255 -0.96984 6278 ft 201 kts 281°
2026-04-29 15:48 38.51559 -0.98727 6086 ft 202 kts 281°
2026-04-29 15:49 38.51842 -1.00488 5885 ft 201 kts 272°
2026-04-29 15:49 38.51512 -1.02184 5678 ft 198 kts 229°
2026-04-29 15:49 38.50350 -1.03054 5488 ft 196 kts 187°
2026-04-29 15:49 38.49010 -1.03112 5299 ft 194 kts 178°
2026-04-29 15:50 38.47642 -1.03084 5098 ft 193 kts 178°
2026-04-29 15:50 38.46310 -1.02939 4899 ft 191 kts 163°
2026-04-29 15:50 38.45078 -1.02335 4706 ft 190 kts 154°
2026-04-29 15:50 38.43921 -1.01502 4504 ft 188 kts 143°
2026-04-29 15:51 38.42907 -1.00449 4307 ft 188 kts 138°
2026-04-29 15:51 38.41942 -0.99373 4224 ft 179 kts 138°
2026-04-29 15:51 38.41018 -0.98351 4211 ft 174 kts 138°
2026-04-29 15:51 38.40089 -0.97330 4216 ft 177 kts 138°
2026-04-29 15:52 38.39158 -0.96316 4211 ft 177 kts 138°
2026-04-29 15:52 38.38215 -0.95290 4212 ft 178 kts 138°
2026-04-29 15:52 38.37267 -0.94264 4208 ft 177 kts 138°
2026-04-29 15:52 38.36327 -0.93251 4205 ft 178 kts 138°
2026-04-29 15:53 38.35371 -0.92219 4200 ft 177 kts 138°
2026-04-29 15:53 38.34439 -0.91200 4197 ft 177 kts 138°
2026-04-29 15:53 38.33494 -0.90165 4195 ft 177 kts 138°
2026-04-29 15:53 38.32560 -0.89138 4196 ft 177 kts 138°
2026-04-29 15:54 38.31647 -0.88105 4187 ft 176 kts 130°
2026-04-29 15:54 38.31141 -0.86719 4191 ft 173 kts 92°
2026-04-29 15:54 38.31408 -0.85309 4232 ft 160 kts 69°
2026-04-29 15:54 38.31702 -0.83955 4168 ft 152 kts 85°
2026-04-29 15:55 38.31729 -0.82608 4110 ft 152 kts 92°
2026-04-29 15:55 38.31653 -0.81246 3889 ft 156 kts 96°
2026-04-29 15:55 38.31519 -0.79907 3607 ft 149 kts 98°
2026-04-29 15:55 38.31365 -0.78627 3429 ft 143 kts 98°
2026-04-29 15:56 38.31201 -0.77353 3262 ft 148 kts 99°
2026-04-29 15:56 38.31030 -0.76070 3027 ft 147 kts 99°
2026-04-29 15:56 38.30857 -0.74792 2837 ft 145 kts 99°
2026-04-29 15:56 38.30682 -0.73516 2646 ft 146 kts 98°
2026-04-29 15:57 38.30506 -0.72252 2441 ft 145 kts 99°
2026-04-29 15:57 38.30330 -0.70981 2246 ft 144 kts 99°
2026-04-29 15:57 38.30157 -0.69734 2050 ft 144 kts 99°
2026-04-29 15:57 38.29982 -0.68477 1850 ft 143 kts 99°
2026-04-29 15:58 38.29811 -0.67245 1668 ft 142 kts 99°
2026-04-29 15:58 38.29639 -0.66003 1478 ft 142 kts 98°
2026-04-29 15:58 38.29467 -0.64759 1285 ft 143 kts 99°
2026-04-29 15:58 38.29294 -0.63511 1097 ft 143 kts 98°
2026-04-29 15:59 38.29114 -0.62270 908 ft 142 kts 102°
2026-04-29 15:59 38.28916 -0.61024 729 ft 142 kts 101°
2026-04-29 15:59 38.28758 -0.59779 586 ft 142 kts 99°
2026-04-29 15:59 38.28598 -0.58535 411 ft 144 kts 100°
2026-04-29 16:00 38.28419 -0.57270 176 ft 143 kts 101°
2026-04-29 16:00 38.28257 -0.56056 100 ft 136 kts 95°
2026-04-29 16:00 38.28103 -0.55074 77 ft 99 kts 107°
2026-04-29 16:00 38.28019 -0.54490 55 ft 40 kts 89°
2026-04-29 16:01 38.28050 -0.54286 48 ft 11 kts 110°
2026-04-29 16:01 38.28045 -0.54244 47 ft 7 kts 88°
2026-04-29 16:01 38.28133 -0.54203 44 ft 18 kts 329°
2026-04-29 16:01 38.28178 -0.54325 48 ft 13 kts 280°
2026-04-29 16:02 38.28192 -0.54422 52 ft 8 kts 279°
2026-04-29 16:02 38.28200 -0.54480 54 ft 4 kts 279°
2026-04-29 16:02 38.28213 -0.54575 57 ft 17 kts 279°
2026-04-29 16:02 38.28236 -0.54721 61 ft 14 kts 282°
2026-04-29 16:03 38.28255 -0.54826 65 ft 10 kts 282°
2026-04-29 16:03 38.28276 -0.54969 71 ft 22 kts 278°
2026-04-29 16:03 38.28297 -0.55138 80 ft 16 kts 279°
2026-04-29 16:03 38.28308 -0.55225 83 ft 6 kts 279°
2026-04-29 16:04 38.28323 -0.55345 88 ft 20 kts 278°
2026-04-29 16:04 38.28348 -0.55494 97 ft 13 kts 282°
2026-04-29 16:04 38.28381 -0.55586 100 ft 8 kts 316°
2026-04-29 16:04 38.28455 -0.55600 101 ft 15 kts
2026-04-29 16:05 38.28499 -0.55652 103 ft 6 kts 268°
2026-04-29 16:05 38.28519 -0.55712 104 ft 13 kts 317°
2026-04-29 16:05 38.28560 -0.55725 105 ft 10 kts
2026-04-29 16:05 38.28588 -0.55719 105 ft 0 kts